Hourly Data Report for April 20, 2021

MIRAMICHI RCS
NEW BRUNSWICK
Current Station Operator: ECCC - MSC

47°00'34.000" N
65°27'54.000" W
33.00 m
8100989
71744
ACQ

Download Data

Hourly Data (April 2021)
Hourly Data Report for April 20, 2021
TIME
LST
Temp Definition
°C
Dew Point Definition
°C
Rel Hum Definition
%
Precip. Amount Definition
mm

Wind Dir Definition
10's deg

Wind Spd Definition
km/h
Visibility Definition
km
Stn Press Definition
kPa
Hmdx Definition


Wind Chill Definition


Weather Definition


00:00 1.7 0.5 91 LegendMM 27 2   100.40     LegendNANA
01:00 1.3 -0.1 90 LegendMM 25 3   100.43     LegendNANA
02:00 0.9 -0.3 92 LegendMM 26 1   100.43     LegendNANA
03:00 1.6 0.4 91 LegendMM 11 5   100.44     LegendNANA
04:00 3.4 1.8 90 LegendMM 4 6   100.48     LegendNANA
05:00 4.1 3.6 96 LegendMM 6 7   100.52     LegendNANA
06:00 4.4 3.7 95 LegendMM 7 16   100.55     LegendNANA
07:00 4.6 3.2 91 LegendMM 9 13   100.62     LegendNANA
08:00 5.3 3.3 87 LegendMM 9 15   100.63     LegendNANA
09:00 6.5 3.3 80 LegendMM 9 12   100.59     LegendNANA
10:00 8.0 3.2 71 LegendMM 9 10   100.60     LegendNANA
11:00 9.8 3.4 65 LegendMM 10 6   100.58     LegendNANA
12:00 11.4 4.3 62 LegendMM 8 10   100.52     LegendNANA
13:00 11.3 3.4 58 LegendMM 5 17   100.47     LegendNANA
14:00 12.0 4.0 58 LegendMM 4 16   100.39     LegendNANA
15:00 12.8 4.2 56 LegendMM 5 15   100.34     LegendNANA
16:00 13.2 3.8 53 LegendMM 10 22   100.26     LegendNANA
17:00 12.2 3.5 55 LegendMM 10 25   100.19     LegendNANA
18:00 10.2 3.3 62 LegendMM 10 21   100.20     LegendNANA
19:00 8.4 6.0 84 LegendMM 1 3   100.34     LegendNANA
20:00 7.3 6.0 92 LegendMM 8 15   100.26     LegendNANA
21:00 7.1 6.2 94 LegendMM 32 6   100.38     LegendNANA
22:00 6.9 6.1 94 LegendMM 30 5   100.41     LegendNANA
23:00 6.9 5.1 89 LegendMM 26 8   100.46     LegendNANA

Notes on Data Quality.

Legend

  • E = Estimated
  • M = Missing
  • NA = Not Available*
  • [empty] = Indicates an unobserved value
Date modified: